Temperature
26 25 25 24 23 22 21 21 20 20 20 20 19 19 19 19 19 19 19 19 19 19 19 19 19 19 19 19 19 18 19 19 19 18 18 18 18 18 18 18 18 17 17
27 26 25 24 23 22 21 21 21 20 20 20 20 20 19 19 19 19 19 19 19 19 19 19 19 19 19 19 19 19 19 19 19 18 18 18 18 18 18 18 18 17 17
27 26 25 25 24 22 22 21 21 21 21 20 20 20 20 20 20 20 20 19 19 19 19 19 19 19 19 19 19 19 18 18 18 18 18 18 18 18 18 18 17 17 17
28 27 26 25 24 23 22 22 21 21 21 20 20 20 20 20 20 20 20 19 19 19 19 19 19 19 19 19 18 18 18 18 18 18 18 18 18 18 17 17 17 17 17
29 28 27 25 25 24 23 22 22 21 21 21 20 20 20 20 20 20 20 20 19 19 19 19 19 19 19 18 18 19 18 18 18 18 18 18 18 18 18 17 17 17 17
30 28 27 26 25 24 23 22 22 22 21 21 21 21 20 20 20 20 20 20 20 19 19 19 19 19 19 19 19 18 18 18 18 18 18 18 18 18 18 17 17 17 16
30 29 28 26 25 25 24 23 22 22 22 22 21 21 21 21 20 20 20 20 20 20 19 19 19 19 19 19 18 18 18 18 18 18 18 18 18 18 18 17 17 17 16
30 29 28 27 26 25 24 24 23 22 22 22 22 21 21 21 20 20 20 20 20 20 20 19 19 19 19 18 18 18 18 18 18 18 17 17 17 17 17 17 17 16 16
30 29 28 27 26 25 24 24 23 22 22 22 22 22 21 21 21 20 20 20 20 20 20 19 19 19 19 19 18 18 18 18 18 17 17 17 17 17 17 17 17 17 16
30 29 28 27 26 25 24 24 23 23 22 22 22 21 22 21 21 20 20 20 20 20 20 20 19 19 19 19 19 18 18 18 18 18 17 17 17 17 17 17 17 17 17
30 29 28 28 26 26 25 24 23 23 23 22 22 21 21 21 21 21 20 20 20 20 20 20 19 19 19 19 19 18 18 18 18 17 17 17 17 17 17 17 17 17 17
30 29 28 27 26 26 25 24 23 23 23 22 22 22 21 21 21 21 20 20 20 20 20 19 19 19 19 19 18 18 18 18 17 17 17 17 17 17 17 17 17 16 16
30 29 28 27 27 26 25 24 24 23 23 22 22 22 21 21 21 20 20 20 20 20 19 19 19 19 19 18 18 18 18 17 17 17 17 17 17 17 16 16 16 16 16
29 28 27 27 26 26 25 25 24 24 23 23 22 22 22 21 21 20 20 20 20 19 19 19 19 19 18 18 18 18 17 17 17 17 17 17 17 16 16 16 16 16 16
28 28 27 26 26 25 25 24 24 24 23 23 22 22 22 21 21 20 20 20 20 19 19 19 19 18 18 18 18 18 17 17 17 17 17 17 16 16 16 16 16 16 15
27 26 26 25 25 25 24 24 24 23 23 22 22 22 21 21 21 21 20 20 20 19 19 19 19 18 18 18 18 18 17 17 17 17 16 16 16 16 16 16 16 16 15
26 25 25 24 24 24 24 24 23 23 22 22 22 21 21 21 21 20 20 20 20 19 19 19 19 18 19 18 18 18 17 17 17 17 16 16 16 16 16 16 16 15 15
25 25 24 24 23 23 23 23 23 22 22 22 21 21 21 20 20 20 20 20 19 19 19 19 18 18 18 18 18 17 17 17 17 16 16 16 16 16 16 15 15 15 15
25 24 24 24 23 23 23 22 22 22 21 21 21 21 20 20 20 20 19 19 19 19 19 18 18 18 18 18 18 17 17 17 16 16 16 16 16 16 16 15 15 15 15
24 23 23 23 23 22 22 22 22 21 21 21 21 20 20 20 20 19 19 19 18 18 18 18 18 18 18 18 18 17 17 16 16 16 16 16 16 16 16 15 15 15 15
23 23 22 22 22 21 21 21 21 21 21 20 20 20 20 19 19 19 19 18 18 18 18 17 17 17 17 17 17 17 17 16 16 16 15 15 15 15 15 15 15 15 15
22 22 22 21 21 21 21 20 20 20 20 20 19 19 19 19 19 19 18 18 18 17 17 17 17 17 17 16 17 16 16 16 16 15 15 15 15 15 15 15 15 14 14
21 21 21 21 20 20 20 20 20 20 19 19 19 19 19 19 18 18 18 17 17 17 17 17 16 16 16 16 16 16 16 16 15 15 15 15 15 15 15 15 14 14 14
21 20 20 20 20 20 19 19 19 19 19 18 18 18 18 18 18 18 17 17 17 16 16 16 16 16 16 16 16 16 15 15 15 15 15 14 14 14 14 14 14 14 14
20 20 19 19 19 19 19 18 18 18 18 18 18 18 18 18 17 17 17 17 17 16 16 16 16 16 16 15 15 15 15 15 15 14 14 14 14 14 13 14 14 14 13
19 19 19 18 18 18 18 18 18 17 17 17 17 17 17 17 17 17 16 16 16 16 16 16 16 16 16 15 15 15 15 14 14 14 14 13 13 13 13 13 13 13 13
Wind_Speed
13 12 12 12 12 10 9 7 6 6 4 3 3 3 3 2 2 2 3 3 2 2 1 0 2 1 1 1 1 1 1 2 1 0 1 0 1 2 2 2 2 2 2
13 13 12 12 12 11 10 8 7 7 6 4 3 3 3 2 3 2 4 3 2 1 2 2 1 1 1 1 1 1 1 1 1 1 1 0 0 0 1 3 2 2 2
15 15 14 13 13 12 11 10 8 7 6 6 4 2 2 1 2 3 3 3 2 2 0 2 0 0 1 1 2 1 2 1 1 1 1 1 1 1 1 1 2 2 2
15 15 15 14 14 13 12 10 9 8 7 6 5 4 3 3 2 2 3 3 2 2 2 2 1 0 1 1 1 2 1 1 2 1 2 2 1 1 1 1 2 2 2
15 15 15 14 14 14 13 11 10 9 8 6 5 4 4 3 2 3 4 3 3 2 2 2 1 1 0 1 1 1 0 1 2 2 1 2 2 2 2 2 2 2 2
15 15 15 14 13 14 14 14 12 10 9 8 7 6 4 3 2 3 3 3 3 3 3 3 2 1 0 1 0 0 1 1 2 2 2 1 1 1 1 1 2 2 1
14 14 15 15 13 14 14 13 13 11 10 9 8 7 5 5 4 4 4 3 3 3 3 3 3 2 1 1 1 1 1 1 2 2 2 2 2 1 1 1 1 1 1
13 13 14 14 14 14 13 13 13 11 10 9 8 7 7 5 4 5 3 3 2 3 4 4 3 3 2 2 2 2 2 1 2 3 2 3 2 1 1 1 1 1 1
13 14 14 15 14 13 12 12 13 11 10 9 8 7 6 6 5 4 5 3 2 3 4 4 4 3 3 1 1 2 2 1 2 2 1 2 2 2 1 1 2 2 2
12 13 14 14 14 13 12 11 12 11 9 9 9 8 7 6 4 3 4 3 3 2 3 4 4 4 4 3 3 3 3 2 2 2 2 2 2 2 1 1 2 2 2
12 12 13 13 13 13 14 12 12 11 10 9 8 6 7 7 6 5 4 4 3 3 3 4 4 4 4 4 3 4 3 3 3 3 2 2 2 2 2 1 1 1 2
10 10 12 12 12 12 13 13 12 11 10 9 8 7 6 6 6 6 5 5 5 5 4 4 4 5 4 4 4 5 3 3 3 3 2 2 2 1 2 1 1 1 2
9 10 11 11 10 10 10 11 11 11 11 10 9 8 7 7 6 6 5 5 5 5 4 5 4 4 4 4 4 4 3 3 3 2 2 2 2 2 1 1 1 1 2
7 8 8 9 9 8 8 9 10 10 10 9 9 8 8 7 7 6 5 5 5 5 4 4 4 4 4 4 3 3 3 3 3 2 1 1 2 2 2 2 1 1 1
7 7 7 6 7 8 8 8 8 7 8 9 9 8 7 6 5 5 5 4 5 5 4 4 4 4 4 4 3 3 4 3 3 3 3 2 2 2 1 1 1 2 2
6 6 6 7 6 6 7 7 7 6 6 7 7 6 7 6 6 5 4 4 4 4 4 5 4 4 4 3 3 2 2 2 3 3 2 3 4 4 5 4 3 3 3
6 6 5 5 4 4 5 6 6 6 6 6 6 6 6 5 5 5 5 5 4 4 4 4 4 4 3 4 4 3 2 2 2 2 2 4 3 4 4 5 6 4 5
6 6 5 6 4 3 4 4 5 5 5 5 5 5 5 5 5 5 5 5 4 4 4 4 4 3 4 6 6 4 4 3 3 3 3 3 2 3 3 3 4 4 4
5 5 5 5 5 4 4 3 4 4 5 5 4 4 4 5 5 5 4 4 4 4 4 4 3 4 3 5 6 5 3 3 4 4 3 3 3 3 3 3 4 4 4
5 5 5 5 4 3 3 3 3 3 3 3 3 3 4 4 5 5 4 4 4 4 4 4 4 4 4 6 6 5 3 4 4 3 3 3 2 3 4 3 3 4 4
6 6 5 4 4 4 2 3 3 2 1 1 2 3 3 3 3 3 3 3 4 4 4 4 4 4 5 6 7 7 4 4 4 4 3 3 4 5 5 5 4 4 3
4 5 4 4 3 4 3 4 3 2 1 1 1 1 2 2 2 2 2 3 4 5 4 4 4 3 4 5 6 8 6 5 3 3 2 3 6 7 7 6 5 5 4
4 3 4 3 3 3 3 3 3 2 1 1 1 1 2 2 2 3 3 3 3 4 3 3 4 3 3 3 6 7 7 6 4 3 2 2 6 6 6 8 8 6 5
3 3 3 3 2 2 2 3 2 2 1 1 1 1 2 2 2 1 1 2 2 3 3 3 3 3 3 3 3 4 4 5 5 4 3 4 6 5 5 4 5 5 5
2 2 2 2 2 2 2 2 2 2 1 1 1 2 2 2 2 1 0 1 1 2 4 3 3 3 4 4 4 4 4 4 4 4 3 3 3 4 5 5 5 5 5
2 2 2 2 1 1 2 2 1 0 0 1 2 2 2 2 2 2 0 3 1 2 3 4 4 3 3 3 3 3 4 4 5 4 5 5 5 5 5 5 5 5 5
Wind_Direction
175 169 167 162 157 150 151 155 154 149 157 159 159 162 155 173 167 164 140 144 176 160 173 58 139 210 150 148 175 172 206 209 185 124 37 345 159 163 164 154 134 124 135
172 169 171 169 164 158 157 157 165 161 167 165 165 171 168 177 164 148 133 151 161 180 164 169 212 165 169 194 192 159 231 237 175 164 181 234 169 224 159 145 153 152 135
175 173 176 175 170 164 166 172 170 165 172 170 174 182 160 191 160 151 144 153 165 166 114 132 239 300 238 163 197 218 233 241 237 215 202 216 210 169 166 169 143 135 124
176 177 178 179 174 168 170 165 166 167 171 176 183 191 177 183 183 164 149 159 174 167 162 150 166 99 327 97 213 132 271 260 267 250 227 228 196 199 181 190 149 151 154
176 176 176 174 175 172 170 167 166 169 170 182 187 191 198 195 186 161 146 161 169 171 154 154 146 126 315 60 40 24 328 288 302 303 290 262 230 206 203 203 182 177 166
173 172 172 168 175 173 170 169 166 170 173 181 188 191 207 204 205 181 168 182 175 169 174 166 147 147 182 123 81 295 266 332 329 313 310 304 282 246 216 216 186 167 158
169 170 169 169 175 174 173 169 165 171 177 183 190 191 201 209 217 213 195 198 190 167 170 172 149 164 201 191 190 207 241 269 287 281 292 299 285 282 232 206 198 154 145
166 167 167 169 174 175 171 167 165 171 179 185 188 192 194 208 216 213 218 204 193 172 160 163 162 175 209 223 204 223 228 216 266 272 284 297 293 301 254 215 180 192 159
169 166 167 168 171 171 169 167 162 170 180 184 182 190 190 209 222 202 205 213 197 189 162 167 175 182 196 234 248 230 249 235 257 279 286 285 290 282 262 223 187 191 199
171 169 166 168 170 168 164 168 162 172 180 184 188 190 191 203 219 213 201 198 200 204 177 180 183 186 186 195 228 243 235 216 222 231 237 281 301 314 301 238 221 202 185
172 170 163 165 163 166 166 167 165 170 177 185 186 195 184 192 198 201 202 195 197 199 201 201 198 197 197 199 213 238 223 222 230 241 223 239 275 312 307 286 238 189 154
160 158 158 156 162 166 169 168 168 174 179 181 179 189 186 187 195 199 200 198 202 202 203 204 209 213 205 203 211 234 229 225 232 235 227 243 261 265 281 290 283 198 149
151 152 151 153 159 164 166 165 171 177 179 178 180 185 188 190 197 202 201 200 201 203 204 207 210 219 217 210 214 221 226 227 237 241 230 231 248 251 259 257 249 203 147
135 141 139 147 154 162 163 165 174 176 178 177 182 183 187 190 193 196 195 197 199 206 205 210 212 215 220 217 221 217 221 222 224 224 222 241 242 238 240 231 213 182 149
128 130 135 142 152 154 158 165 169 171 174 174 177 179 180 183 186 188 197 194 198 209 205 211 214 218 217 222 219 231 221 221 223 216 210 215 201 196 186 218 184 173 169
129 123 121 135 139 146 154 157 165 167 166 172 175 170 173 179 183 184 194 192 193 204 207 212 214 220 225 185 173 205 239 223 228 226 216 203 198 181 167 165 164 167 188
126 118 119 121 133 150 154 158 164 168 168 168 170 169 176 181 184 188 191 198 198 206 215 214 209 211 198 170 172 192 236 227 230 239 238 246 217 173 186 192 190 189 197
132 129 135 133 139 140 137 152 161 154 156 162 170 175 181 186 187 192 196 202 201 206 212 214 204 209 197 175 182 200 225 234 226 226 231 229 204 211 196 205 195 197 201
125 126 137 138 138 143 126 118 138 149 158 168 181 184 186 188 192 199 204 200 202 208 213 215 210 207 188 183 186 189 219 230 237 234 232 228 204 193 180 199 206 212 220
118 113 117 114 110 105 126 130 142 145 158 170 178 175 186 201 202 198 206 205 205 212 210 212 216 204 184 186 189 194 217 231 234 232 226 217 201 173 181 205 212 220 232
112 110 104 100 96 88 94 116 118 127 119 129 177 183 194 209 205 187 198 204 209 211 215 215 217 205 189 183 193 197 216 234 240 231 219 197 179 180 196 215 225 229 235
96 109 102 96 94 97 107 113 111 105 99 103 169 173 186 224 197 174 203 212 214 215 215 211 219 197 183 179 201 203 216 242 261 260 236 196 186 198 210 221 230 233 232
114 106 104 102 93 91 105 124 115 110 115 125 160 172 184 216 209 197 213 219 217 222 222 223 223 210 194 187 195 201 222 242 250 276 293 235 202 206 218 227 226 221 226
124 119 118 116 97 80 77 104 108 100 103 148 185 191 189 199 202 190 206 216 224 237 238 242 238 226 209 200 203 211 222 237 246 259 262 235 219 221 229 227 224 220 228
135 132 132 120 95 76 73 80 92 107 131 166 232 227 222 207 186 173 269 221 239 234 225 228 228 228 231 226 211 212 218 227 232 232 231 234 227 220 218 220 217 214 219
126 126 119 113 101 86 80 66 58 94 173 253 263 264 240 217 194 173 154 18 244 216 193 209 211 221 204 189 189 206 218 222 207 210 232 233 235 234 226 220 219 215 219
Height
1507 1510 1513 1516 1518 1519 1521 1523 1524 1526 1527 1528 1529 1530 1531 1532 1533 1534 1534 1534 1535 1536 1537 1538 1539 1539 1540 1541 1541 1541 1542 1542 1543 1543 1543 1543 1543 1544 1544 1544 1545 1545 1544
1504 1508 1511 1514 1516 1518 1520 1522 1523 1525 1526 1528 1530 1531 1532 1532 1533 1534 1534 1534 1535 1536 1537 1537 1538 1539 1539 1540 1540 1541 1541 1542 1542 1542 1542 1543 1544 1543 1543 1543 1543 1543 1543
1500 1504 1508 1511 1514 1516 1518 1520 1522 1524 1526 1528 1529 1531 1532 1532 1533 1534 1534 1534 1535 1536 1536 1537 1537 1538 1538 1539 1539 1539 1540 1540 1541 1541 1542 1542 1541 1542 1542 1542 1542 1542 1542
1495 1500 1504 1508 1511 1513 1516 1518 1520 1522 1524 1527 1528 1530 1531 1532 1533 1533 1534 1534 1535 1536 1536 1537 1537 1537 1537 1538 1538 1538 1538 1539 1539 1540 1540 1541 1541 1541 1541 1541 1541 1541 1541
1491 1496 1500 1505 1508 1511 1514 1516 1518 1521 1523 1525 1527 1528 1530 1531 1532 1533 1534 1534 1534 1535 1536 1536 1536 1536 1536 1537 1537 1537 1537 1537 1538 1538 1539 1539 1539 1539 1539 1539 1539 1539 1539
1487 1492 1497 1502 1506 1509 1512 1514 1516 1519 1521 1523 1525 1527 1528 1530 1531 1532 1533 1533 1534 1534 1535 1535 1535 1535 1535 1535 1535 1536 1536 1536 1536 1536 1537 1537 1537 1537 1537 1537 1537 1537 1537
1484 1489 1494 1498 1502 1506 1509 1512 1514 1516 1519 1521 1523 1525 1527 1528 1530 1531 1532 1533 1533 1533 1533 1534 1534 1534 1534 1534 1534 1535 1535 1535 1535 1535 1535 1535 1535 1536 1535 1535 1535 1535 1536
1480 1485 1490 1495 1499 1503 1507 1510 1512 1514 1517 1519 1521 1523 1525 1527 1528 1529 1530 1531 1532 1532 1533 1533 1533 1533 1533 1533 1533 1533 1533 1533 1533 1534 1534 1534 1534 1534 1534 1534 1533 1534 1534
1477 1482 1487 1492 1497 1501 1504 1507 1510 1513 1515 1517 1519 1521 1523 1525 1526 1527 1528 1529 1530 1531 1531 1531 1531 1531 1531 1531 1532 1532 1532 1532 1532 1532 1532 1532 1532 1532 1532 1532 1532 1532 1532
1474 1479 1484 1489 1494 1498 1502 1505 1508 1511 1513 1515 1517 1519 1521 1523 1524 1525 1526 1527 1528 1529 1529 1529 1529 1529 1529 1529 1530 1530 1530 1530 1530 1530 1530 1530 1530 1530 1530 1530 1530 1530 1530
1473 1476 1481 1486 1491 1495 1499 1502 1506 1508 1510 1513 1515 1518 1519 1520 1521 1522 1524 1525 1525 1526 1526 1527 1527 1527 1527 1528 1528 1528 1528 1528 1528 1528 1528 1528 1528 1528 1528 1528 1528 1528 1528
1470 1475 1479 1483 1488 1492 1497 1500 1503 1505 1507 1510 1512 1515 1516 1518 1519 1520 1521 1522 1522 1523 1524 1524 1524 1525 1525 1525 1525 1526 1526 1526 1526 1526 1526 1526 1526 1526 1526 1526 1526 1526 1527
1470 1474 1478 1482 1486 1491 1494 1497 1500 1503 1505 1507 1510 1512 1513 1515 1516 1517 1518 1519 1520 1521 1521 1522 1522 1522 1523 1523 1523 1523 1524 1524 1524 1524 1524 1523 1523 1523 1523 1524 1524 1524 1525
1469 1473 1476 1481 1485 1489 1492 1495 1498 1501 1503 1505 1507 1509 1510 1512 1513 1514 1515 1516 1517 1518 1519 1519 1519 1520 1520 1520 1520 1520 1521 1521 1521 1521 1521 1521 1520 1520 1521 1521 1521 1522 1522
1470 1472 1476 1480 1483 1486 1490 1493 1496 1499 1501 1503 1504 1505 1507 1509 1510 1511 1512 1513 1514 1515 1516 1516 1517 1517 1518 1518 1518 1518 1518 1518 1518 1518 1518 1518 1518 1518 1519 1519 1519 1519 1520
1470 1473 1476 1479 1482 1485 1488 1491 1494 1496 1499 1500 1502 1503 1504 1505 1507 1508 1509 1510 1511 1512 1513 1514 1514 1514 1514 1514 1515 1515 1515 1515 1515 1515 1515 1515 1515 1515 1516 1516 1516 1517 1517
1471 1474 1477 1479 1482 1484 1486 1489 1492 1495 1497 1498 1500 1501 1501 1503 1504 1506 1506 1507 1508 1509 1510 1511 1510 1510 1510 1511 1512 1512 1512 1512 1512 1513 1513 1513 1513 1513 1513 1513 1513 1514 1515
1470 1474 1477 1479 1482 1484 1486 1488 1490 1493 1495 1496 1498 1499 1500 1501 1502 1503 1503 1504 1505 1506 1506 1507 1507 1507 1507 1507 1508 1509 1509 1509 1509 1509 1509 1509 1509 1509 1509 1510 1510 1511 1511
1470 1473 1476 1479 1481 1483 1484 1486 1488 1490 1492 1493 1495 1496 1497 1497 1498 1499 1500 1501 1502 1502 1503 1504 1504 1504 1504 1505 1505 1506 1506 1506 1506 1506 1506 1506 1506 1506 1506 1507 1507 1507 1508
1470 1473 1475 1477 1479 1481 1483 1484 1486 1488 1489 1491 1492 1493 1494 1495 1495 1496 1497 1498 1498 1499 1499 1500 1501 1501 1501 1501 1502 1503 1502 1502 1503 1503 1503 1503 1503 1503 1503 1503 1504 1504 1504
1470 1472 1474 1476 1478 1480 1482 1483 1485 1486 1487 1488 1490 1491 1492 1492 1493 1493 1494 1495 1495 1495 1496 1497 1497 1497 1498 1498 1499 1499 1499 1499 1499 1499 1499 1499 1499 1500 1500 1500 1500 1500 1501
1470 1472 1474 1476 1477 1479 1480 1481 1483 1484 1485 1486 1487 1488 1489 1490 1490 1490 1491 1491 1492 1493 1493 1494 1494 1495 1495 1495 1495 1496 1496 1496 1496 1496 1496 1496 1496 1496 1496 1496 1496 1497 1497
1471 1472 1474 1475 1477 1478 1480 1480 1481 1482 1483 1484 1484 1485 1486 1487 1488 1488 1488 1489 1489 1490 1490 1491 1491 1491 1492 1491 1492 1492 1492 1492 1492 1492 1492 1493 1493 1493 1493 1493 1493 1493 1493
1470 1472 1473 1474 1476 1477 1478 1479 1479 1480 1481 1482 1482 1483 1483 1484 1485 1486 1486 1486 1486 1487 1487 1488 1488 1488 1488 1487 1487 1487 1487 1488 1488 1488 1489 1489 1489 1489 1489 1489 1489 1489 1489
1468 1470 1471 1472 1474 1475 1476 1477 1478 1478 1479 1479 1480 1481 1481 1482 1482 1483 1483 1482 1483 1483 1484 1484 1484 1484 1484 1483 1483 1482 1483 1483 1484 1484 1484 1484 1484 1484 1484 1484 1484 1484 1484
1466 1468 1470 1471 1472 1474 1474 1475 1476 1477 1477 1477 1478 1479 1479 1479 1479 1479 1479 1479 1479 1479 1479 1479 1480 1479 1479 1479 1479 1479 1479 1479 1480 1480 1479 1479 1479 1479 1479 1479 1480 1480 1479